Location: RyutenAO
(34.8939°N, 134.0022°E)
Time: 18:50:42
(UTC+09:00)

Envisat - Visible Passes

Search period start: 02 December 2021 00:00
Search period end: 12 December 2021 00:00
Orbit: 764 x 766 km, 98.2° (Epoch: 01 December)

Date Brightness Start Highest point End Pass type
(mag) Time Alt. Az. Time Alt. Az. Time Alt. Az.
02 Dec 5.1 04:11:23 10° NE 04:15:33 25° E 04:19:42 10° SSE visible
02 Dec 3.7 05:50:05 10° N 05:54:31 31° WNW 05:58:56 10° SW visible
03 Dec 2.8 05:12:46 10° N 05:17:50 74° WNW 05:22:53 10° SSW visible
04 Dec 4.0 04:36:06 10° NNE 04:40:58 46° E 04:45:50 10° S visible
04 Dec 4.3 06:16:15 10° NNW 06:19:34 18° WNW 06:22:54 10° WSW visible
04 Dec 5.9 17:27:46 10° SW 17:31:10 18° W 17:34:35 10° NW visible
05 Dec 5.4 04:00:18 10° NE 04:03:55 19° E 04:07:32 10° SE visible
05 Dec 3.4 05:38:19 10° N 05:43:02 40° WNW 05:47:44 10° SW visible
06 Dec 2.9 05:01:12 10° NNE 05:06:18 86° ESE 05:11:22 10° SSW visible
07 Dec 4.5 04:24:44 10° NNE 04:29:23 35° E 04:34:00 10° SSE visible
07 Dec 4.0 06:04:14 10° NNW 06:08:08 23° WNW 06:12:02 10° WSW visible
07 Dec 5.7 17:15:32 10° SSW 17:19:32 23° W 17:23:33 10° NW visible
08 Dec 5.8 03:49:27 10° ENE 03:52:16 15° E 03:55:05 10° SE visible
08 Dec 3.1 05:26:37 10° N 05:31:32 52° WNW 05:36:26 10° SSW visible
09 Dec 3.3 04:49:41 10° NNE 04:54:45 66° ESE 04:59:46 10° S visible
09 Dec 4.6 06:30:58 10° NW 06:33:08 13° WNW 06:35:19 10° W visible
09 Dec 6.2 17:42:57 10° WSW 17:45:03 12° W 17:47:08 10° WNW visible
10 Dec 4.9 04:13:28 10° NE 04:17:46 27° E 04:22:02 10° SSE visible
10 Dec 3.7 05:52:21 10° N 05:56:41 29° WNW 06:00:59 10° SW visible
11 Dec 6.1 03:39:14 10° ENE 03:40:36 11° E 03:41:58 10° ESE visible
11 Dec 2.9 05:14:58 10° N 05:20:01 68° WNW 05:25:02 10° SSW visible
